Patterson, LA

1:51 PM CST on November 17, 2019 (GMT -0600)
Williams Memorial

Weather History for KPTN - September, 2019

Change the Weather History Date:

Friday, September 6, 2019

  Actual Average Record
Temperature  
Mean Temperature 86 °F -  
Max Temperature 96 °F 85 °F 93 °F (2012)
Min Temperature 77 °F 71 °F 62 °F (2011)
Cooling Degree Days 22    
Growing Degree Days 36 (Base 50)    
Moisture  
Dew Point 75 °F    
Average Humidity 75    
Maximum Humidity 96    
Minimum Humidity 50    
Precipitation  
Precipitation 0.00 in - - ()
Sea Level Pressure  
Sea Level Pressure 30.01 in    
Wind  
Wind Speed 3 mph (WNW)    
Max Wind Speed 8 mph    
Max Gust Speed -    
Visibility 10 miles    
Events      
Averages and records for this station are not official NWS values.
T = Trace of Precipitation, MM = Missing Value Source: NWS Daily Summary

Daily Weather History Graph

Daily Weather History Graph

Search for Another Location

Airport or City:

Astronomy

Sep. 06, 2019 Rise Set
Actual Time 6:45 AM CDT 7:21 PM CDT
Civil Twilight 6:21 AM CDT 7:45 PM CDT
Nautical Twilight 5:52 AM CDT 8:14 PM CDT
Astronomical Twilight 5:23 AM CDT 8:43 PM CDT
Moon 2:20 PM CDT (9/6) 12:10 AM CDT (9/6)
Length of Visible Light 13h 24m
Length of Day
12h 36m
First Quarter, 56% of the Moon is Illuminated
Sep 6
First Quarter
Sep 13
Full
Sep 21
Last Quarter
Sep 28
New
Oct 5
First Quarter

Hourly Weather History & Observations

Time (CDT) Temp. Heat Index Dew Point Humidity Pressure Visibility Wind Dir Wind Speed Gust Speed Precip Events Conditions
12:56 AM 77.0 °F - 75.9 °F 96% 30.01 in 9.0 mi Calm Calm - N/A   Clear
1:56 AM 77.0 °F - 75.9 °F 96% 30.01 in 6.0 mi SW 3.5 mph - N/A   Clear
2:56 AM 77.0 °F - 75.9 °F 96% 30.00 in 7.0 mi Calm Calm - N/A   Clear
3:56 AM 77.0 °F - 75.9 °F 96% 30.01 in 10.0 mi WNW 4.6 mph - N/A   Clear
4:56 AM 78.1 °F - 73.9 °F 87% 30.01 in 10.0 mi WNW 4.6 mph - N/A   Clear
5:56 AM 77.0 °F - 73.0 °F 88% 30.03 in 10.0 mi West 3.5 mph - N/A   Clear
6:56 AM 77.0 °F - 73.0 °F 88% 30.04 in 10.0 mi WNW 3.5 mph - N/A   Clear
7:56 AM 79.0 °F - 73.0 °F 82% 30.05 in 10.0 mi NW 3.5 mph - N/A   Clear
8:56 AM 82.9 °F 88.8 °F 73.0 °F 72% 30.06 in 10.0 mi NNW 4.6 mph - N/A   Clear
9:56 AM 86.0 °F 93.8 °F 73.9 °F 67% 30.07 in 10.0 mi NNW 8.1 mph - N/A   Clear
10:56 AM 89.1 °F 98.0 °F 73.9 °F 61% 30.06 in 10.0 mi NW 4.6 mph - N/A   Clear
11:56 AM 91.9 °F 101.3 °F 73.9 °F 55% 30.05 in 9.0 mi WNW 5.8 mph - N/A   Clear
12:56 PM 93.0 °F 101.9 °F 73.0 °F 52% 30.04 in 10.0 mi NNW 5.8 mph - N/A   Clear
1:56 PM 95.0 °F 105.2 °F 73.9 °F 50% 30.02 in 10.0 mi NNW 6.9 mph - N/A   Clear
2:56 PM 96.1 °F 108.6 °F 75.0 °F 51% 30.00 in 10.0 mi WNW 8.1 mph - N/A   Clear
3:56 PM 96.1 °F 108.6 °F 75.0 °F 51% 29.98 in 10.0 mi NW 8.1 mph - N/A   Clear
4:56 PM 95.0 °F 105.2 °F 73.9 °F 50% 29.97 in 10.0 mi NNW 5.8 mph - N/A   Clear
5:56 PM 93.0 °F 106.7 °F 77.0 °F 59% 29.97 in 10.0 mi West 6.9 mph - N/A   Clear
6:56 PM 90.0 °F 102.5 °F 77.0 °F 65% 29.97 in 10.0 mi West 5.8 mph - N/A   Clear
7:56 PM 84.0 °F 94.8 °F 78.1 °F 82% 29.98 in 10.0 mi WSW 3.5 mph - N/A   Clear
8:56 PM 81.0 °F 89.2 °F 79.0 °F 94% 29.99 in 10.0 mi Calm Calm - N/A   Clear
10:56 PM 81.0 °F 88.6 °F 78.1 °F 91% 30.01 in 10.0 mi Calm Calm - N/A   Clear
11:56 PM 80.1 °F 86.4 °F 78.1 °F 94% 30.01 in 10.0 mi SW 3.5 mph - N/A   Clear